Weather History for Buffalo, SD

Change the Weather History Date:

Friday, September 27, 2013

  Actual Average Record
Temperature  
Mean Temperature 44 °F 53 °F  
Max Temperature 46 °F 66 °F 89 °F (2011)
Min Temperature 41 °F 39 °F 32 °F (1999)
Degree Days  
Heating Degree Days 21 12  
Month to date heating degree days 92 198  
Since 1 July heating degree days 104 250  
Cooling Degree Days 0 0  
Month to date cooling degree days 100 40  
Year to date cooling degree days 587 511  
Moisture  
Dew Point 39 °F    
Average Humidity 79    
Maximum Humidity 93    
Minimum Humidity 65    
Precipitation  
Precipitation 0.10 in 0.01 in 0.25 in (2005)
Month to date precipitation 2.16 1.05  
Year to date precipitation 11.64 13.19  
Sea Level Pressure  
Sea Level Pressure 29.88 in    
Wind  
Wind Speed 12 mph (WNW)    
Max Wind Speed 22 mph    
Max Gust Speed 28 mph    
T = Trace of Precipitation, MM = Missing Value Source: NWS Daily Summary

Daily Weather History Graph

Daily Weather History Graph

Search for Another Location

Airport:

Trip Planner

Search our weather history database for the weather conditions in past years. The results will help you decide how hot, cold, wet, or windy it might be!

Date:

Astronomy

Sep. 27, 2013 Rise Set
Actual Time 6:47 AM MDT 6:41 PM MDT
Civil Twilight 6:18 AM MDT 7:11 PM MDT
Nautical Twilight 5:43 AM MDT 7:45 PM MDT
Astronomical Twilight 5:08 AM MDT 8:20 PM MDT
Moon No Moon Rise 2:37 PM MDT (9/27)
Length of Visible Light 12h 52m
Length of Day
11h 53m
Last Quarter, 44% of the Moon is Illuminated
Sep 27
Last Quarter
Oct 4
New
Oct 11
First Quarter
Oct 18
Full
Oct 26
Last Quarter

Hourly Weather History & Observations

Time (MDT) Temp. Windchill Dew Point Humidity Pressure Visibility Wind Dir Wind Speed Gust Speed Precip Events Conditions
12:56 AM 45.0 °F 37.6 °F 39.0 °F 80% 29.83 in - North 17.3 mph - N/A   Unknown
1:56 AM 45.0 °F 38.2 °F 39.9 °F 82% 29.86 in - NNW 15.0 mph - N/A   Unknown
2:56 AM 44.1 °F 37.7 °F 39.9 °F 85% 29.86 in - NW 12.7 mph - N/A   Unknown
3:56 AM 44.1 °F 37.7 °F 42.1 °F 93% 29.87 in - NNW 12.7 mph - 0.03 in   Unknown
4:56 AM 44.1 °F 36.5 °F 39.9 °F 85% 29.86 in - NW 17.3 mph - 0.02 in   Unknown
5:56 AM 43.0 °F 35.7 °F 39.9 °F 89% 29.85 in - NW 15.0 mph - 0.01 in   Unknown
6:56 AM 43.0 °F 36.8 °F 39.9 °F 89% 29.85 in - NNW 11.5 mph - N/A   Unknown
7:56 AM 43.0 °F 37.2 °F 39.0 °F 86% 29.86 in - NNW 10.4 mph - N/A   Unknown
8:56 AM 43.0 °F 38.2 °F 39.0 °F 86% 29.89 in - WNW 8.1 mph - N/A   Unknown
9:56 AM 44.1 °F 37.7 °F 39.9 °F 85% 29.88 in - WNW 12.7 mph - N/A   Unknown
10:56 AM 45.0 °F 38.2 °F 39.9 °F 82% 29.90 in - WNW 15.0 mph - N/A   Unknown
11:56 AM 44.1 °F 36.2 °F 37.0 °F 76% 29.89 in - NW 18.4 mph - N/A   Unknown
12:56 PM 43.0 °F 35.7 °F 37.0 °F 80% 29.88 in - NW 15.0 mph - N/A   Unknown
1:56 PM 46.0 °F 39.0 °F 36.0 °F 68% 29.84 in - NW 17.3 mph - N/A   Unknown
2:56 PM 45.0 °F 39.3 °F 35.1 °F 68% 29.86 in - NW 11.5 mph - N/A   Unknown
3:56 PM 45.0 °F 39.3 °F 39.0 °F 80% 29.88 in - WNW 11.5 mph - N/A   Unknown
4:56 PM 43.0 °F 37.2 °F 37.9 °F 82% 29.90 in - WNW 10.4 mph - 0.01 in   Unknown
5:56 PM 42.1 °F 37.1 °F 37.9 °F 85% 29.90 in - WNW 8.1 mph - 0.02 in   Unknown
6:56 PM 42.1 °F 38.4 °F 39.0 °F 89% 29.91 in - WSW 5.8 mph - 0.01 in   Unknown
7:56 PM 41.0 °F 35.8 °F 39.0 °F 93% 29.91 in - West 8.1 mph - N/A   Unknown
8:56 PM 42.1 °F 36.1 °F 39.0 °F 89% 29.93 in - West 10.4 mph - N/A   Unknown
9:56 PM 42.1 °F 37.7 °F 39.0 °F 89% 29.88 in - WNW 6.9 mph - N/A   Unknown
10:56 PM 41.0 °F 35.2 °F 39.0 °F 93% 29.88 in - WSW 9.2 mph - N/A   Unknown
11:56 PM 41.0 °F 36.4 °F 39.0 °F 93% 29.87 in - WSW 6.9 mph - N/A   Unknown